Location: Go�ngahuizen
(53.0821°N, 5.8849°E)
Time: 18:14:08
(UTC+00:00)

Cosmos 2082 Rocket - Pass Details

Date: 09 April 2020
Orbit: 831 x 855 km, 71.0° (Epoch: 24 May)

Event Time Altitude Azimuth Distance (km) Brightness Sun altitude
Exits shadow 20:34:28 18° 86° (E) 1,977 3.7 -17.7°
Drops below altitude 10° 20:37:10 10° 58° (ENE) 2,469 4.5 -18.0°
Sets 20:40:20 0° 40° (NE) 3,414 5.4 -18.3°
